timestamp,wind_dir_avg,wind_spd_avg,wind_spd_max_dir,wind_spd_gust,battery_voltage,lat,long
2023-06-26 00:04:01+00:00,311.0,4.83,312.0,5.34,12.49,47.59359,-54.27349
2023-06-26 00:14:00+00:00,334.0,5.05,332.0,5.46,12.41,47.59359,-54.27349
2023-06-26 00:24:00+00:00,328.0,5.33,327.0,5.51,12.41,47.59359,-54.27349
2023-06-26 00:34:00+00:00,16.0,5.4,17.0,7.16,12.41,47.59359,-54.27349
2023-06-26 00:44:00+00:00,29.0,7.07,30.0,7.91,12.41,47.59359,-54.27349
2023-06-26 00:54:00+00:00,26.0,6.71,26.0,7.22,12.41,47.59359,-54.27349
2023-06-26 01:04:00+00:00,43.0,6.28,41.0,6.87,12.41,47.59359,-54.27349
2023-06-26 01:14:01+00:00,37.0,7.01,37.0,7.72,12.41,47.59359,-54.27349
2023-06-26 01:24:01+00:00,37.0,7.38,36.0,8.14,12.41,47.59359,-54.27349
2023-06-26 01:34:01+00:00,29.0,7.48,29.0,8.03,12.41,47.59359,-54.27349
2023-06-26 01:44:01+00:00,33.0,6.98,34.0,7.53,12.41,47.59359,-54.27349
2023-06-26 01:54:01+00:00,28.0,6.94,31.0,7.82,12.41,47.59359,-54.27349
2023-06-26 02:04:01+00:00,29.0,5.83,29.0,6.31,12.41,47.59359,-54.27349
2023-06-26 02:14:01+00:00,44.0,4.62,46.0,4.93,12.33,47.59359,-54.27349
2023-06-26 02:24:01+00:00,36.0,5.81,37.0,6.62,12.33,47.59359,-54.27349
2023-06-26 02:34:01+00:00,36.0,7.07,36.0,7.89,12.33,47.59359,-54.27349
2023-06-26 02:44:01+00:00,35.0,7.18,35.0,8.09,12.33,47.59359,-54.27349
2023-06-26 02:54:01+00:00,38.0,7.39,40.0,7.86,12.33,47.59359,-54.27349
2023-06-26 03:04:01+00:00,46.0,6.09,48.0,6.95,12.33,47.59359,-54.27349
2023-06-26 03:14:01+00:00,45.0,6.11,43.0,6.8,12.33,47.59359,-54.27349
2023-06-26 03:24:01+00:00,38.0,7.27,36.0,8.08,12.33,47.59359,-54.27349
2023-06-26 03:34:01+00:00,37.0,6.43,38.0,6.92,12.33,47.59359,-54.27349
2023-06-26 03:44:01+00:00,40.0,5.84,38.0,6.7,12.33,47.59359,-54.27349
2023-06-26 03:54:01+00:00,44.0,5.47,43.0,5.87,12.33,47.59359,-54.27349
2023-06-26 04:04:01+00:00,37.0,6.04,36.0,6.81,12.33,47.59359,-54.27349
2023-06-26 04:14:00+00:00,36.0,6.59,37.0,7.13,12.33,47.59359,-54.27349
2023-06-26 04:24:00+00:00,38.0,6.4,37.0,6.89,12.33,47.59359,-54.27349
2023-06-26 04:34:00+00:00,36.0,5.68,37.0,6.31,12.33,47.59359,-54.27349
2023-06-26 04:44:00+00:00,39.0,7.03,40.0,8.01,12.33,47.59359,-54.27349
2023-06-26 04:54:00+00:00,46.0,9.67,49.0,10.82,12.33,47.59359,-54.27349
2023-06-26 05:04:00+00:00,44.0,9.42,46.0,10.7,12.33,47.59359,-54.27349
2023-06-26 05:14:01+00:00,49.0,9.65,43.0,11.44,12.25,47.59359,-54.27349
2023-06-26 05:24:01+00:00,52.0,8.95,51.0,10.31,12.25,47.59359,-54.27349
2023-06-26 05:34:01+00:00,51.0,9.09,51.0,10.59,12.25,47.59359,-54.27349
2023-06-26 05:44:01+00:00,47.0,8.21,48.0,9.36,12.25,47.59359,-54.27349
2023-06-26 05:54:01+00:00,44.0,8.09,46.0,8.76,12.25,47.59359,-54.27349
2023-06-26 06:04:01+00:00,40.0,7.95,43.0,8.78,12.25,47.59359,-54.27349
2023-06-26 06:14:00+00:00,37.0,6.89,43.0,7.97,12.17,47.59359,-54.27349
2023-06-26 06:24:00+00:00,31.0,8.07,33.0,8.75,12.17,47.59359,-54.27349
2023-06-26 06:34:00+00:00,35.0,9.2,35.0,9.99,12.17,47.59359,-54.27349
2023-06-26 06:44:00+00:00,41.0,7.6,36.0,9.23,12.17,47.59359,-54.27349
2023-06-26 06:54:00+00:00,38.0,8.02,37.0,8.8,12.17,47.59359,-54.27349
2023-06-26 07:04:00+00:00,37.0,8.42,37.0,9.5,12.17,47.59359,-54.27349
2023-06-26 07:14:01+00:00,39.0,8.74,38.0,9.71,12.17,47.59359,-54.27349
2023-06-26 07:24:01+00:00,37.0,7.46,35.0,8.99,12.17,47.59359,-54.27349
2023-06-26 07:34:01+00:00,40.0,7.84,43.0,8.75,12.17,47.59359,-54.27349
2023-06-26 07:44:01+00:00,39.0,6.74,42.0,7.61,12.17,47.59359,-54.27349
2023-06-26 07:54:01+00:00,40.0,7.52,38.0,8.84,12.17,47.59359,-54.27349
2023-06-26 08:04:01+00:00,42.0,6.73,44.0,7.66,12.17,47.59359,-54.27349
2023-06-26 08:14:01+00:00,38.0,6.94,38.0,7.78,12.17,47.59359,-54.27349
2023-06-26 08:24:01+00:00,35.0,8.31,37.0,9.54,12.17,47.59359,-54.27349
2023-06-26 08:34:01+00:00,35.0,7.68,36.0,8.58,12.17,47.59359,-54.27349
2023-06-26 08:44:01+00:00,38.0,6.91,34.0,7.64,12.17,47.59359,-54.27349
2023-06-26 08:54:01+00:00,37.0,6.79,38.0,7.75,12.17,47.59359,-54.27349
2023-06-26 09:04:01+00:00,40.0,6.9,44.0,7.51,12.17,47.59359,-54.27349
2023-06-26 09:14:00+00:00,37.0,7.4,39.0,8.16,12.25,47.59359,-54.27349
2023-06-26 09:24:00+00:00,36.0,7.31,34.0,7.98,12.25,47.59359,-54.27349
2023-06-26 09:34:00+00:00,38.0,8.02,34.0,8.9,12.25,47.59359,-54.27349
2023-06-26 09:44:00+00:00,37.0,7.5,38.0,8.43,12.25,47.59359,-54.27349
2023-06-26 09:54:00+00:00,42.0,7.8,41.0,8.92,12.25,47.59359,-54.27349
2023-06-26 10:04:00+00:00,44.0,7.78,48.0,9.22,12.25,47.59359,-54.27349
2023-06-26 10:14:00+00:00,40.0,7.96,36.0,8.94,13.05,47.59359,-54.27349
2023-06-26 10:24:00+00:00,39.0,7.09,41.0,7.99,13.05,47.59359,-54.27349
2023-06-26 10:34:00+00:00,40.0,6.72,36.0,8.0,13.05,47.59359,-54.27349
2023-06-26 10:44:00+00:00,35.0,8.14,33.0,9.1,13.05,47.59359,-54.27349
2023-06-26 10:54:00+00:00,38.0,6.68,37.0,7.87,13.05,47.59359,-54.27349
2023-06-26 11:04:00+00:00,40.0,7.04,44.0,8.24,13.05,47.59359,-54.27349
2023-06-26 11:14:00+00:00,38.0,7.84,34.0,8.96,13.44,47.59359,-54.27349
2023-06-26 11:24:00+00:00,39.0,8.8,36.0,9.7,13.44,47.59359,-54.27349
2023-06-26 11:34:00+00:00,37.0,9.42,40.0,10.77,13.44,47.59359,-54.27349
2023-06-26 11:44:00+00:00,43.0,9.65,41.0,11.24,13.44,47.59359,-54.27349
2023-06-26 11:54:00+00:00,41.0,9.58,42.0,10.38,13.44,47.59359,-54.27349
2023-06-26 12:04:00+00:00,41.0,8.66,41.0,9.69,13.44,47.59359,-54.27349
2023-06-26 12:14:00+00:00,43.0,8.93,44.0,9.7,14.16,47.59359,-54.27349
2023-06-26 12:24:00+00:00,43.0,7.63,43.0,8.28,14.16,47.59359,-54.27349
2023-06-26 12:34:00+00:00,51.0,7.28,47.0,8.09,14.16,47.59359,-54.27349
2023-06-26 12:44:00+00:00,46.0,7.29,47.0,8.24,14.16,47.59359,-54.27349
2023-06-26 12:54:00+00:00,44.0,7.84,41.0,8.56,14.16,47.59359,-54.27349
2023-06-26 13:04:00+00:00,43.0,7.53,41.0,8.45,14.16,47.59359,-54.27349
2023-06-26 13:14:00+00:00,46.0,6.05,51.0,6.84,13.92,47.59359,-54.27349
2023-06-26 13:24:00+00:00,42.0,6.68,43.0,7.42,13.92,47.59359,-54.27349
2023-06-26 13:34:00+00:00,44.0,6.3,45.0,6.96,13.92,47.59359,-54.27349
2023-06-26 13:44:00+00:00,41.0,5.54,44.0,5.97,13.92,47.59359,-54.27349
2023-06-26 13:54:00+00:00,49.0,5.53,50.0,6.33,13.92,47.59359,-54.27349
2023-06-26 14:04:00+00:00,53.0,5.74,58.0,6.32,13.92,47.59359,-54.27349
2023-06-26 14:14:00+00:00,49.0,5.17,49.0,5.98,14.24,47.59359,-54.27349
2023-06-26 14:24:00+00:00,48.0,5.25,45.0,6.18,14.24,47.59359,-54.27349
2023-06-26 14:34:00+00:00,41.0,5.6,44.0,6.52,14.24,47.59359,-54.27349
2023-06-26 14:44:00+00:00,47.0,6.1,51.0,6.86,14.24,47.59359,-54.27349
2023-06-26 14:54:00+00:00,48.0,5.15,48.0,5.65,14.24,47.59359,-54.27349
2023-06-26 15:04:00+00:00,61.0,5.18,55.0,5.96,14.24,47.59359,-54.27349
2023-06-26 15:14:00+00:00,71.0,5.91,70.0,7.65,13.68,47.59359,-54.27349
2023-06-26 15:24:00+00:00,70.0,5.94,70.0,6.3,13.68,47.59359,-54.27349
2023-06-26 15:34:00+00:00,67.0,5.51,68.0,6.24,13.68,47.59359,-54.27349
2023-06-26 15:44:00+00:00,69.0,5.2,57.0,7.18,13.68,47.59359,-54.27349
2023-06-26 15:54:00+00:00,74.0,4.17,102.0,5.41,13.68,47.59359,-54.27349
2023-06-26 16:04:00+00:00,70.0,5.29,61.0,6.24,13.68,47.59359,-54.27349
2023-06-26 16:14:00+00:00,68.0,5.0,60.0,6.32,14.4,47.59359,-54.27349
2023-06-26 16:24:00+00:00,72.0,3.69,55.0,5.42,14.4,47.59359,-54.27349
2023-06-26 16:34:00+00:00,78.0,4.12,76.0,5.59,14.4,47.59359,-54.27349
2023-06-26 16:44:00+00:00,71.0,4.8,63.0,6.09,14.4,47.59359,-54.27349
2023-06-26 16:54:00+00:00,87.0,3.7,123.0,5.81,14.4,47.59359,-54.27349
2023-06-26 17:04:00+00:00,81.0,4.17,96.0,6.31,14.4,47.59359,-54.27349
2023-06-26 17:14:00+00:00,76.0,5.05,73.0,6.94,14.32,47.59359,-54.27349
2023-06-26 17:24:00+00:00,68.0,6.03,66.0,9.32,14.32,47.59359,-54.27349
2023-06-26 17:34:00+00:00,74.0,5.49,66.0,7.15,14.32,47.59359,-54.27349
2023-06-26 17:44:00+00:00,71.0,6.97,66.0,8.14,14.32,47.59359,-54.27349
2023-06-26 17:54:00+00:00,72.0,7.9,68.0,10.39,14.32,47.59359,-54.27349
2023-06-26 18:04:00+00:00,71.0,7.14,66.0,8.21,14.32,47.59359,-54.27349
2023-06-26 18:14:00+00:00,69.0,7.68,72.0,8.51,13.76,47.59359,-54.27349
2023-06-26 18:24:00+00:00,66.0,7.1,63.0,7.67,13.76,47.59359,-54.27349
2023-06-26 18:34:00+00:00,63.0,5.18,61.0,5.93,13.76,47.59359,-54.27349
2023-06-26 18:44:00+00:00,61.0,5.41,61.0,6.24,13.76,47.59359,-54.27349
2023-06-26 18:54:00+00:00,52.0,5.98,53.0,6.55,13.76,47.59359,-54.27349
2023-06-26 19:04:00+00:00,52.0,5.39,54.0,5.91,13.76,47.59359,-54.27349
2023-06-26 19:14:00+00:00,58.0,5.47,58.0,6.0,13.68,47.59359,-54.27349
2023-06-26 19:24:00+00:00,59.0,5.6,59.0,5.95,13.68,47.59359,-54.27349
2023-06-26 19:34:00+00:00,61.0,5.16,61.0,5.8,13.68,47.59359,-54.27349
2023-06-26 19:44:00+00:00,58.0,5.23,60.0,5.4,13.68,47.59359,-54.27349
2023-06-26 19:54:00+00:00,57.0,4.83,57.0,5.16,13.68,47.59359,-54.27349
2023-06-26 20:04:00+00:00,56.0,4.18,57.0,4.44,13.68,47.59359,-54.27349
2023-06-26 20:14:00+00:00,63.0,4.11,60.0,4.7,13.68,47.59359,-54.27349
2023-06-26 20:24:00+00:00,70.0,3.8,71.0,4.08,13.68,47.59359,-54.27349
2023-06-26 20:34:00+00:00,61.0,4.09,59.0,4.38,13.68,47.59359,-54.27349
2023-06-26 20:44:00+00:00,68.0,3.86,71.0,4.26,13.68,47.59359,-54.27349
2023-06-26 20:54:00+00:00,70.0,3.76,60.0,4.71,13.68,47.59359,-54.27349
2023-06-26 21:04:00+00:00,82.0,2.66,69.0,3.82,13.68,47.59359,-54.27349
2023-06-26 21:14:01+00:00,89.0,2.8,93.0,3.53,13.6,47.59359,-54.27349
2023-06-26 21:24:01+00:00,85.0,2.02,79.0,3.28,13.6,47.59359,-54.27349
2023-06-26 21:34:01+00:00,99.0,2.81,90.0,3.79,13.6,47.59359,-54.27349
2023-06-26 21:44:01+00:00,80.0,2.7,111.0,4.61,13.6,47.59359,-54.27349
2023-06-26 21:54:01+00:00,78.0,2.72,99.0,3.94,13.6,47.59359,-54.27349
2023-06-26 22:04:01+00:00,95.0,2.86,100.0,3.86,13.6,47.59359,-54.27349
2023-06-26 22:14:00+00:00,93.0,3.02,87.0,4.15,13.53,47.59359,-54.27349
2023-06-26 22:24:00+00:00,104.0,2.53,96.0,3.94,13.53,47.59359,-54.27349
2023-06-26 22:34:00+00:00,95.0,2.32,66.0,3.36,13.53,47.59359,-54.27349
2023-06-26 22:44:00+00:00,87.0,2.79,102.0,3.66,13.53,47.59359,-54.27349
2023-06-26 22:54:00+00:00,79.0,2.81,63.0,3.78,13.53,47.59359,-54.27349
2023-06-26 23:04:00+00:00,80.0,2.92,89.0,3.94,13.53,47.59359,-54.27349
2023-06-26 23:14:00+00:00,99.0,2.48,116.0,4.12,13.21,47.59359,-54.27349
2023-06-26 23:24:00+00:00,95.0,3.13,103.0,5.19,13.21,47.59359,-54.27349
2023-06-26 23:34:00+00:00,96.0,2.74,116.0,3.82,13.21,47.59359,-54.27349
2023-06-26 23:44:00+00:00,97.0,2.53,106.0,4.05,13.21,47.59359,-54.27349
2023-06-26 23:54:00+00:00,82.0,2.85,88.0,4.14,13.21,47.59359,-54.27349
